QPF
0.02 0.02 0.03 0.03 0.04 0.05 0.05 0.06 0.07 0.07 0.06 0.05 0.03 0.02 0.02 0.02 0.02 0.02 0.02 0.02 0.03 0.05 0.04 0.02 0.02 0.02 0.03 0.04 0.03 0.04 0.05 0.05 0.06 0.05 0.05 0.06 0.06 0.06
0.02 0.02 0.02 0.03 0.03 0.04 0.06 0.06 0.07 0.08 0.07 0.06 0.05 0.04 0.03 0.02 0.02 0.02 0.02 0.03 0.03 0.06 0.06 0.04 0.03 0.03 0.04 0.04 0.03 0.04 0.04 0.03 0.03 0.04 0.05 0.05 0.06 0.06
0.01 0.01 0.01 0.02 0.03 0.04 0.05 0.06 0.06 0.06 0.07 0.06 0.04 0.04 0.03 0.02 0.02 0.02 0.02 0.03 0.03 0.06 0.09 0.07 0.04 0.04 0.04 0.04 0.04 0.04 0.04 0.04 0.03 0.03 0.03 0.04 0.04 0.05
0.01 0.01 0.01 0.01 0.02 0.03 0.04 0.05 0.04 0.04 0.04 0.04 0.04 0.04 0.04 0.03 0.03 0.03 0.02 0.02 0.02 0.04 0.09 0.08 0.05 0.04 0.04 0.04 0.03 0.03 0.03 0.03 0.03 0.03 0.03 0.03 0.03 0.05
0.02 0.02 0.01 0.02 0.02 0.02 0.03 0.03 0.03 0.03 0.03 0.03 0.03 0.04 0.05 0.05 0.05 0.04 0.04 0.04 0.04 0.04 0.08 0.09 0.06 0.04 0.04 0.03 0.03 0.02 0.02 0.02 0.02 0.02 0.03 0.03 0.03 0.04
0.03 0.03 0.03 0.03 0.03 0.02 0.03 0.03 0.03 0.04 0.04 0.03 0.03 0.03 0.04 0.06 0.07 0.06 0.06 0.05 0.05 0.05 0.07 0.11 0.09 0.06 0.04 0.03 0.03 0.02 0.02 0.02 0.02 0.02 0.02 0.03 0.03 0.03
0.02 0.02 0.02 0.03 0.03 0.03 0.04 0.03 0.04 0.04 0.04 0.04 0.04 0.04 0.04 0.04 0.06 0.07 0.07 0.06 0.05 0.05 0.05 0.09 0.12 0.09 0.05 0.04 0.03 0.03 0.02 0.02 0.02 0.02 0.02 0.02 0.03 0.04
0.01 0.01 0.02 0.02 0.03 0.03 0.04 0.04 0.04 0.05 0.04 0.04 0.04 0.03 0.03 0.04 0.05 0.06 0.07 0.07 0.07 0.06 0.05 0.07 0.12 0.15 0.11 0.07 0.05 0.04 0.03 0.02 0.02 0.02 0.02 0.02 0.02 0.03
0.01 0.01 0.02 0.02 0.02 0.02 0.03 0.03 0.04 0.04 0.04 0.05 0.05 0.04 0.04 0.04 0.05 0.06 0.07 0.07 0.07 0.07 0.07 0.07 0.09 0.13 0.13 0.10 0.08 0.06 0.04 0.03 0.02 0.02 0.02 0.03 0.03 0.03
0.02 0.02 0.02 0.02 0.02 0.03 0.03 0.03 0.02 0.02 0.02 0.03 0.04 0.04 0.04 0.04 0.05 0.05 0.06 0.07 0.07 0.06 0.06 0.07 0.07 0.11 0.12 0.10 0.10 0.08 0.07 0.06 0.05 0.04 0.03 0.04 0.05 0.05
0.02 0.02 0.02 0.02 0.02 0.03 0.03 0.03 0.03 0.02 0.03 0.03 0.03 0.03 0.03 0.04 0.05 0.05 0.06 0.06 0.06 0.05 0.05 0.05 0.05 0.06 0.08 0.08 0.09 0.09 0.08 0.07 0.07 0.06 0.06 0.06 0.07 0.06
0.02 0.02 0.02 0.02 0.02 0.03 0.03 0.02 0.02 0.02 0.02 0.03 0.03 0.03 0.02 0.03 0.04 0.04 0.05 0.05 0.04 0.04 0.04 0.04 0.04 0.04 0.06 0.07 0.07 0.07 0.07 0.07 0.07 0.07 0.07 0.07 0.08 0.07
0.02 0.02 0.02 0.02 0.02 0.03 0.03 0.02 0.02 0.02 0.02 0.02 0.02 0.02 0.02 0.02 0.03 0.03 0.04 0.05 0.04 0.04 0.03 0.04 0.04 0.04 0.05 0.06 0.06 0.06 0.06 0.06 0.06 0.06 0.07 0.07 0.08 0.07
0.02 0.02 0.02 0.02 0.02 0.02 0.02 0.02 0.01 0.02 0.02 0.02 0.02 0.02 0.01 0.02 0.02 0.02 0.02 0.03 0.04 0.04 0.04 0.05 0.06 0.05 0.05 0.05 0.05 0.05 0.05 0.05 0.05 0.05 0.05 0.07 0.07 0.06
0.02 0.02 0.02 0.02 0.02 0.02 0.02 0.01 0.01 0.01 0.01 0.02 0.02 0.01 0.01 0.01 0.01 0.01 0.01 0.02 0.03 0.03 0.04 0.05 0.06 0.06 0.06 0.06 0.05 0.05 0.04 0.04 0.04 0.04 0.05 0.06 0.05 0.04
0.02 0.02 0.02 0.02 0.02 0.02 0.02 0.01 0.01 0.01 0.01 0.01 0.01 0.01 0.01 0.01 0.01 0.01 0.02 0.02 0.04 0.04 0.04 0.04 0.04 0.05 0.05 0.04 0.04 0.04 0.04 0.04 0.04 0.04 0.05 0.06 0.06 0.04
0.02 0.02 0.02 0.02 0.02 0.02 0.02 0.01 0.01 0.01 0.01 0.01 0.01 0.01 0.01 0.01 0.01 0.01 0.02 0.03 0.04 0.04 0.04 0.03 0.03 0.03 0.04 0.04 0.04 0.03 0.03 0.03 0.03 0.03 0.04 0.05 0.05 0.04
0.03 0.03 0.02 0.02 0.02 0.01 0.01 0.01 0.01 0.01 0.01 0.01 0.01 0.01 0.01 0.01 0.01 0.01 0.02 0.02 0.04 0.03 0.03 0.03 0.03 0.03 0.03 0.04 0.04 0.03 0.03 0.03 0.02 0.02 0.03 0.03 0.03 0.03
0.03 0.03 0.02 0.02 0.01 0.01 0.01 0.01 0.01 0.01 0.01 0.01 0.01 0.01 0.01 0.01 0.01 0.01 0.02 0.02 0.03 0.03 0.03 0.02 0.02 0.03 0.04 0.03 0.03 0.03 0.04 0.03 0.02 0.02 0.03 0.03 0.03 0.02
0.02 0.02 0.02 0.02 0.02 0.01 0.02 0.02 0.02 0.01 0.01 0.01 0.01 0.01 0.01 0.01 0.01 0.02 0.02 0.03 0.03 0.03 0.03 0.03 0.03 0.03 0.04 0.04 0.04 0.04 0.03 0.04 0.04 0.03 0.03 0.03 0.02 0.03
0.02 0.02 0.02 0.02 0.02 0.02 0.02 0.02 0.02 0.02 0.02 0.01 0.01 0.01 0.01 0.02 0.02 0.02 0.02 0.02 0.03 0.03 0.03 0.02 0.03 0.03 0.03 0.03 0.05 0.05 0.04 0.04 0.04 0.04 0.04 0.03 0.03 0.03
0.02 0.02 0.02 0.02 0.02 0.01 0.02 0.02 0.02 0.02 0.02 0.02 0.02 0.02 0.01 0.01 0.02 0.02 0.02 0.02 0.02 0.03 0.03 0.03 0.02 0.03 0.04 0.04 0.03 0.04 0.05 0.04 0.04 0.03 0.03 0.03 0.04 0.04
0.02 0.02 0.02 0.02 0.02 0.02 0.02 0.02 0.02 0.02 0.02 0.02 0.02 0.02 0.02 0.02 0.02 0.02 0.02 0.02 0.02 0.02 0.03 0.03 0.03 0.03 0.04 0.04 0.04 0.04 0.04 0.05 0.04 0.04 0.04 0.04 0.04 0.04
MSLP
1016.27 1016.60 1016.88 1017.09 1017.21 1017.22 1017.14 1017.00 1016.83 1016.66 1016.53 1016.45 1016.41 1016.41 1016.41 1016.40 1016.35 1016.25 1016.11 1015.92 1015.70 1015.46 1015.20 1014.94 1014.66 1014.36 1014.02 1013.65 1013.24 1012.81 1012.37 1011.94 1011.55 1011.21 1010.91 1010.68 1010.48 1010.30
1016.59 1016.91 1017.20 1017.42 1017.55 1017.58 1017.52 1017.39 1017.21 1017.03 1016.86 1016.73 1016.63 1016.56 1016.49 1016.41 1016.29 1016.13 1015.93 1015.69 1015.43 1015.15 1014.86 1014.56 1014.26 1013.94 1013.59 1013.21 1012.81 1012.38 1011.94 1011.52 1011.12 1010.77 1010.46 1010.20 1009.98 1009.77
1017.06 1017.37 1017.64 1017.86 1017.99 1018.02 1017.96 1017.83 1017.65 1017.45 1017.25 1017.07 1016.92 1016.78 1016.64 1016.48 1016.29 1016.07 1015.80 1015.51 1015.18 1014.85 1014.52 1014.18 1013.84 1013.50 1013.14 1012.76 1012.35 1011.94 1011.52 1011.12 1010.74 1010.40 1010.10 1009.83 1009.59 1009.35
1017.65 1017.94 1018.19 1018.38 1018.48 1018.50 1018.43 1018.29 1018.10 1017.89 1017.67 1017.45 1017.25 1017.06 1016.85 1016.63 1016.37 1016.08 1015.74 1015.38 1014.99 1014.60 1014.20 1013.81 1013.43 1013.05 1012.67 1012.28 1011.88 1011.48 1011.09 1010.71 1010.36 1010.04 1009.74 1009.48 1009.22 1008.96
1018.33 1018.57 1018.78 1018.92 1018.99 1018.98 1018.89 1018.74 1018.54 1018.31 1018.07 1017.84 1017.60 1017.36 1017.11 1016.83 1016.51 1016.15 1015.75 1015.32 1014.86 1014.40 1013.94 1013.48 1013.04 1012.62 1012.20 1011.78 1011.38 1010.99 1010.61 1010.25 1009.91 1009.61 1009.32 1009.05 1008.78 1008.49
1019.00 1019.20 1019.35 1019.45 1019.47 1019.42 1019.30 1019.12 1018.91 1018.68 1018.43 1018.18 1017.93 1017.66 1017.37 1017.05 1016.68 1016.27 1015.81 1015.31 1014.79 1014.26 1013.72 1013.20 1012.69 1012.20 1011.73 1011.28 1010.84 1010.43 1010.04 1009.68 1009.35 1009.04 1008.75 1008.47 1008.18 1007.86
1019.62 1019.76 1019.86 1019.89 1019.86 1019.76 1019.61 1019.41 1019.19 1018.95 1018.70 1018.45 1018.18 1017.90 1017.59 1017.24 1016.84 1016.38 1015.88 1015.33 1014.76 1014.16 1013.56 1012.97 1012.39 1011.82 1011.28 1010.76 1010.27 1009.81 1009.39 1008.99 1008.64 1008.30 1007.99 1007.68 1007.36 1007.01
1020.11 1020.20 1020.24 1020.21 1020.13 1019.99 1019.80 1019.59 1019.35 1019.11 1018.86 1018.61 1018.34 1018.05 1017.73 1017.37 1016.94 1016.47 1015.93 1015.35 1014.74 1014.09 1013.44 1012.78 1012.13 1011.49 1010.86 1010.27 1009.70 1009.16 1008.66 1008.21 1007.79 1007.40 1007.05 1006.69 1006.34 1005.96
1020.44 1020.49 1020.48 1020.40 1020.27 1020.09 1019.88 1019.64 1019.40 1019.16 1018.91 1018.66 1018.39 1018.10 1017.78 1017.40 1016.97 1016.48 1015.94 1015.34 1014.70 1014.03 1013.34 1012.63 1011.91 1011.20 1010.50 1009.80 1009.14 1008.51 1007.91 1007.36 1006.86 1006.40 1005.97 1005.57 1005.17 1004.77
1020.63 1020.64 1020.58 1020.46 1020.29 1020.08 1019.85 1019.60 1019.35 1019.11 1018.86 1018.61 1018.34 1018.05 1017.72 1017.34 1016.91 1016.42 1015.88 1015.28 1014.64 1013.96 1013.24 1012.51 1011.74 1010.97 1010.18 1009.40 1008.63 1007.89 1007.19 1006.53 1005.93 1005.37 1004.87 1004.41 1003.96 1003.53
1020.68 1020.65 1020.56 1020.41 1020.22 1019.99 1019.75 1019.50 1019.24 1019.00 1018.75 1018.49 1018.22 1017.92 1017.58 1017.20 1016.77 1016.28 1015.75 1015.16 1014.53 1013.86 1013.14 1012.39 1011.60 1010.78 1009.93 1009.06 1008.20 1007.35 1006.53 1005.77 1005.05 1004.41 1003.82 1003.30 1002.82 1002.37
1020.63 1020.57 1020.45 1020.29 1020.08 1019.85 1019.60 1019.35 1019.11 1018.85 1018.60 1018.34 1018.05 1017.74 1017.39 1017.00 1016.57 1016.08 1015.56 1014.99 1014.38 1013.72 1013.01 1012.26 1011.45 1010.60 1009.70 1008.77 1007.82 1006.88 1005.96 1005.09 1004.28 1003.55 1002.89 1002.31 1001.80 1001.34
1020.49 1020.40 1020.27 1020.10 1019.89 1019.67 1019.43 1019.19 1018.95 1018.70 1018.45 1018.17 1017.88 1017.55 1017.18 1016.77 1016.33 1015.84 1015.32 1014.76 1014.16 1013.52 1012.82 1012.07 1011.26 1010.39 1009.45 1008.47 1007.46 1006.44 1005.44 1004.49 1003.60 1002.80 1002.09 1001.46 1000.92 1000.45
1020.27 1020.17 1020.03 1019.85 1019.65 1019.44 1019.23 1019.00 1018.78 1018.54 1018.28 1018.00 1017.69 1017.34 1016.96 1016.53 1016.07 1015.57 1015.04 1014.48 1013.89 1013.25 1012.56 1011.81 1010.99 1010.10 1009.14 1008.12 1007.06 1005.99 1004.94 1003.92 1002.98 1002.12 1001.37 1000.71 1000.16 999.68
1019.99 1019.86 1019.71 1019.54 1019.36 1019.17 1018.98 1018.78 1018.57 1018.35 1018.10 1017.82 1017.50 1017.14 1016.73 1016.28 1015.80 1015.28 1014.73 1014.16 1013.55 1012.90 1012.20 1011.44 1010.60 1009.69 1008.71 1007.67 1006.58 1005.47 1004.38 1003.33 1002.35 1001.46 1000.67 1000.00 999.44 998.96
1019.62 1019.48 1019.32 1019.16 1018.99 1018.83 1018.67 1018.50 1018.32 1018.13 1017.89 1017.62 1017.30 1016.93 1016.50 1016.03 1015.51 1014.97 1014.39 1013.78 1013.14 1012.47 1011.74 1010.95 1010.09 1009.16 1008.16 1007.09 1005.98 1004.85 1003.73 1002.66 1001.66 1000.76 999.96 999.28 998.70 998.22
1019.20 1019.03 1018.87 1018.71 1018.56 1018.43 1018.30 1018.17 1018.03 1017.86 1017.65 1017.39 1017.07 1016.70 1016.26 1015.76 1015.22 1014.64 1014.03 1013.38 1012.70 1011.97 1011.20 1010.37 1009.48 1008.51 1007.48 1006.39 1005.26 1004.12 1003.00 1001.92 1000.91 1000.00 999.19 998.51 997.92 997.43
1018.73 1018.55 1018.38 1018.23 1018.11 1018.00 1017.90 1017.80 1017.69 1017.55 1017.37 1017.13 1016.83 1016.45 1016.00 1015.49 1014.93 1014.31 1013.66 1012.96 1012.22 1011.45 1010.62 1009.74 1008.80 1007.79 1006.73 1005.62 1004.48 1003.33 1002.21 1001.13 1000.13 999.22 998.41 997.71 997.12 996.61
1018.28 1018.08 1017.91 1017.77 1017.66 1017.57 1017.50 1017.43 1017.35 1017.24 1017.08 1016.86 1016.57 1016.20 1015.75 1015.22 1014.63 1013.99 1013.29 1012.54 1011.76 1010.92 1010.04 1009.10 1008.11 1007.07 1005.98 1004.85 1003.70 1002.55 1001.43 1000.37 999.37 998.47 997.66 996.96 996.35 995.83
1017.87 1017.68 1017.51 1017.38 1017.28 1017.21 1017.15 1017.11 1017.05 1016.95 1016.81 1016.60 1016.31 1015.94 1015.49 1014.95 1014.34 1013.67 1012.93 1012.15 1011.31 1010.43 1009.49 1008.51 1007.48 1006.40 1005.29 1004.15 1003.00 1001.86 1000.75 999.70 998.73 997.84 997.04 996.33 995.72 995.18
1017.56 1017.37 1017.20 1017.08 1016.99 1016.93 1016.89 1016.85 1016.80 1016.71 1016.57 1016.36 1016.07 1015.69 1015.22 1014.67 1014.05 1013.35 1012.58 1011.77 1010.89 1009.97 1009.00 1007.98 1006.93 1005.83 1004.70 1003.56 1002.42 1001.31 1000.23 999.20 998.25 997.38 996.60 995.90 995.28 994.73
1017.34 1017.16 1017.01 1016.89 1016.81 1016.75 1016.71 1016.67 1016.61 1016.51 1016.36 1016.13 1015.82 1015.43 1014.94 1014.38 1013.73 1013.01 1012.23 1011.39 1010.49 1009.55 1008.56 1007.52 1006.46 1005.36 1004.24 1003.12 1002.00 1000.92 999.87 998.89 997.97 997.14 996.38 995.70 995.09 994.54
1017.20 1017.03 1016.89 1016.78 1016.70 1016.64 1016.59 1016.53 1016.45 1016.32 1016.14 1015.89 1015.55 1015.13 1014.62 1014.03 1013.36 1012.63 1011.83 1010.98 1010.07 1009.13 1008.14 1007.11 1006.05 1004.97 1003.88 1002.79 1001.71 1000.67 999.68 998.75 997.88 997.09 996.38 995.73 995.14 994.61
Thickness
5484 5484 5484 5485 5485 5487 5488 5490 5492 5497 5503 5503 5501 5499 5498 5498 5498 5499 5501 5502 5504 5505 5507 5508 5509 5510 5511 5512 5514 5515 5517 5518 5520 5520 5521 5522 5523 5524
5473 5474 5475 5476 5476 5477 5478 5480 5482 5484 5489 5491 5490 5489 5488 5489 5489 5490 5491 5492 5494 5496 5497 5498 5499 5500 5500 5502 5503 5504 5506 5508 5509 5510 5511 5512 5514 5514
5463 5464 5466 5466 5467 5469 5470 5472 5473 5474 5476 5479 5479 5479 5480 5481 5482 5482 5482 5484 5486 5487 5488 5489 5490 5490 5491 5492 5492 5494 5495 5497 5498 5500 5501 5502 5504 5505
5454 5454 5456 5456 5458 5460 5462 5463 5464 5466 5467 5468 5470 5471 5472 5472 5473 5474 5475 5476 5478 5479 5480 5481 5481 5482 5482 5482 5482 5484 5485 5486 5487 5488 5490 5493 5495 5496
5444 5445 5446 5447 5449 5451 5453 5454 5455 5456 5457 5458 5461 5462 5463 5463 5465 5466 5467 5468 5470 5471 5472 5473 5473 5473 5473 5473 5474 5474 5475 5476 5477 5479 5480 5482 5484 5486
5435 5436 5437 5439 5441 5442 5444 5446 5446 5448 5448 5450 5452 5454 5455 5456 5456 5458 5460 5461 5462 5463 5464 5464 5465 5465 5465 5465 5465 5465 5465 5466 5467 5468 5470 5472 5474 5476
5427 5428 5429 5430 5432 5433 5435 5437 5437 5438 5440 5441 5444 5446 5447 5448 5449 5450 5451 5454 5456 5456 5456 5456 5458 5458 5457 5456 5455 5455 5456 5456 5457 5458 5460 5462 5464 5465
5420 5421 5421 5423 5424 5425 5426 5427 5428 5430 5432 5433 5436 5437 5439 5440 5441 5441 5442 5446 5449 5447 5446 5448 5448 5448 5448 5448 5447 5446 5446 5447 5448 5449 5450 5452 5454 5456
5412 5413 5414 5415 5415 5417 5417 5418 5420 5421 5423 5425 5427 5429 5431 5433 5432 5433 5434 5435 5436 5435 5435 5438 5438 5438 5439 5439 5438 5438 5438 5438 5439 5439 5441 5442 5444 5446
5404 5405 5406 5407 5407 5408 5410 5411 5412 5414 5415 5416 5419 5421 5422 5423 5423 5423 5424 5426 5427 5426 5425 5427 5429 5429 5430 5430 5430 5430 5430 5430 5430 5431 5432 5433 5435 5437
5397 5397 5398 5399 5400 5401 5402 5403 5404 5405 5405 5407 5409 5411 5412 5413 5414 5415 5416 5417 5419 5420 5417 5418 5420 5421 5422 5422 5423 5423 5423 5423 5423 5423 5424 5425 5427 5430
5389 5390 5390 5391 5392 5393 5394 5394 5395 5397 5398 5400 5401 5403 5404 5405 5406 5406 5407 5408 5410 5411 5411 5409 5410 5410 5414 5415 5415 5415 5416 5416 5416 5416 5417 5419 5421 5423
5382 5382 5383 5383 5384 5384 5385 5386 5387 5388 5389 5391 5393 5395 5397 5398 5400 5400 5400 5400 5401 5402 5402 5401 5402 5402 5402 5405 5408 5408 5409 5410 5410 5410 5411 5412 5414 5417
5375 5376 5376 5376 5376 5376 5377 5378 5378 5379 5381 5383 5385 5387 5389 5391 5391 5392 5392 5392 5392 5393 5394 5394 5395 5395 5395 5397 5400 5402 5402 5403 5403 5405 5406 5407 5409 5411
5368 5368 5368 5369 5369 5369 5369 5369 5370 5371 5373 5375 5377 5379 5381 5382 5383 5384 5385 5385 5386 5387 5388 5389 5389 5389 5389 5390 5392 5394 5396 5396 5397 5399 5400 5402 5404 5407
5361 5361 5362 5362 5362 5362 5362 5363 5363 5364 5365 5367 5369 5371 5373 5374 5375 5377 5378 5379 5381 5383 5383 5383 5383 5383 5384 5385 5386 5388 5390 5391 5392 5393 5394 5397 5399 5401
5355 5355 5356 5356 5356 5357 5357 5356 5357 5358 5359 5360 5362 5364 5365 5367 5369 5370 5371 5373 5374 5376 5376 5377 5377 5378 5378 5379 5381 5384 5385 5386 5387 5388 5389 5392 5395 5396
5349 5350 5351 5350 5350 5350 5351 5351 5351 5352 5353 5354 5355 5357 5359 5361 5363 5364 5366 5367 5368 5369 5371 5372 5373 5374 5375 5375 5375 5378 5380 5381 5382 5383 5384 5387 5390 5392
5344 5345 5345 5345 5345 5345 5346 5346 5347 5347 5347 5348 5350 5352 5353 5355 5357 5359 5360 5361 5363 5363 5364 5366 5367 5370 5372 5373 5372 5372 5374 5375 5376 5378 5380 5383 5386 5388
5339 5340 5340 5341 5341 5341 5341 5342 5342 5342 5343 5344 5346 5347 5349 5350 5352 5354 5355 5356 5357 5358 5359 5361 5362 5364 5366 5367 5366 5368 5369 5371 5373 5375 5377 5378 5381 5383
5334 5335 5336 5336 5336 5337 5337 5337 5338 5338 5339 5340 5342 5343 5345 5347 5348 5350 5351 5351 5352 5354 5356 5357 5358 5358 5360 5362 5363 5364 5365 5367 5369 5371 5373 5376 5379 5381
5330 5331 5332 5332 5332 5333 5333 5334 5335 5336 5336 5338 5339 5341 5342 5343 5345 5346 5347 5348 5349 5350 5351 5352 5354 5356 5357 5359 5361 5361 5362 5363 5365 5368 5369 5372 5375 5378
5326 5327 5327 5328 5329 5329 5330 5331 5332 5333 5334 5335 5336 5338 5339 5341 5342 5343 5344 5345 5346 5347 5348 5349 5350 5352 5354 5355 5357 5358 5358 5360 5363 5364 5366 5368 5370 5372